#timestamp,LO_Frequency,Hit,StdDev 
1621526855.1,286046971.8,P
1621526856.0,286046971.8,P
1621526875.8,286046969.6,P
1621526895.7,286046970.2,Y
1621526915.5,286046998.7,P
1621526935.4,286046999.2,N
1621526955.2,286046997.4,N
1621526975.0,286046997.3,N
1621526975.9,286046997.3,N
1621526995.8,286046999.6,N
1621527015.6,286046995.6,N
1621527035.4,286046993.9,N
1621527055.3,286046993.9,N
1621527075.1,286046992.1,N
1621527095.9,286046991.8,N
1621527115.7,286046992.1,N
1621527135.5,286046992.5,N
1621527155.4,286046990.9,N
1621527175.2,286046991.2,N
1621527195.0,286046990.8,N
1621527195.9,286046990.8,N
1621527215.8,286046990.4,N
1621527235.6,286046991.4,N
1621527255.5,286046989.7,N
1621527275.3,286046989.4,N
1621527295.1,286046989.3,N
1621527315.9,286046989.6,N
1621527335.7,286046988.4,N
1621527355.5,286046985.5,N
1621527375.4,286046985.4,N
1621527395.2,286046986.7,N
1621527415.1,286046988.3,N
1621527416.0,286046988.3,N
1621527435.8,286046985.3,N
1621527455.6,286046986.0,Y
1621527475.5,286046991.8,P
1621527495.3,286046991.8,P
1621527515.1,286046993.9,P
1621527535.9,286046992.1,Y
1621527555.7,286047000.1,P
1621527575.6,286047000.7,N
1621527595.4,286047000.9,N
1621527615.2,286047001.1,N
1621527635.1,286047000.9,N
1621527636.0,286047000.9,N
1621527655.8,286046999.0,N
1621527675.7,286046999.3,N
1621527695.5,286046999.0,N
1621527715.3,286046999.2,N
1621527735.2,286046997.7,N
1621527755.0,286046997.2,N
1621527755.9,286046997.2,N
1621527775.8,286046998.0,N
1621527795.6,286046997.4,N
1621527815.4,286046996.9,N
1621527835.3,286046995.0,N
1621527855.1,286046995.9,N
1621527875.8,286046997.9,N
1621527895.7,286046995.9,N
1621527915.5,286046993.5,N
1621527935.4,286046996.0,N
1621527955.2,286046994.1,N
1621527975.0,286046993.4,N
1621527975.9,286046993.4,N
1621527995.8,286046993.8,N
1621528015.6,286046993.4,N
1621528035.4,286046994.2,N
1621528055.3,286046992.2,N
1621528075.1,286046992.6,N
1621528095.9,286046992.4,N
1621528115.7,286046991.8,N
1621528135.5,286046994.3,N
1621528155.4,286046991.9,N
1621528175.2,286046992.8,N
1621528195.1,286046992.7,N
1621528196.0,286046992.7,Y
1621528215.8,286046995.3,P
1621528235.6,286046995.8,P
1621528255.5,286046995.4,P
1621528275.3,286046995.0,Y
1621528295.1,286047000.7,P
1621528315.9,286047000.0,N
1621528335.7,286046999.3,N
1621528355.6,286046998.8,N
1621528375.4,286046996.9,N
1621528395.2,286046999.6,N
1621528415.1,286046996.7,N
1621528416.0,286046996.7,N
1621528435.8,286046999.6,N
1621528455.7,286046999.0,N
1621528475.5,286046997.0,N
1621528495.3,286046997.0,N
1621528515.2,286046997.7,N
1621528535.0,286046997.9,N
1621528535.9,286046997.9,N
1621528555.8,286046997.5,N
1621528575.6,286046995.7,Y
1621528595.4,286046997.6,P
1621528615.3,286046997.1,P
1621528635.1,286046998.0,P
1621528655.9,286046995.4,Y
1621528675.7,286046999.0,P
1621528695.5,286046999.5,N
1621528715.4,286046998.5,N
1621528735.2,286046998.8,N
1621528755.0,286046997.2,Y
1621528756.0,286046997.2,P
1621528775.8,286046998.6,N
1621528795.6,286046998.7,N
1621528815.5,286046998.5,N
1621528835.3,286046998.1,Y
1621528855.1,286047000.1,P
1621528875.9,286047002.6,N
1621528895.7,286047000.7,N
1621528915.6,286047000.3,N
1621528935.4,286047000.8,N
1621528955.2,286047001.1,N
1621528975.1,286046998.1,N
1621528976.0,286046998.1,N
1621528995.8,286046999.6,N
1621529015.6,286046999.1,N
1621529035.5,286047001.2,N
1621529055.3,286047000.5,N
1621529075.2,286046999.0,N
1621529095.9,286046996.8,N
1621529115.7,286046996.9,N
1621529135.6,286046996.6,N
1621529155.4,286046999.5,N
1621529175.2,286046996.6,N
1621529195.1,286046997.1,N
1621529196.0,286046997.1,N
1621529215.8,286046997.3,N
1621529235.7,286046994.9,N
1621529255.5,286046997.9,N
1621529275.3,286046997.0,N
1621529295.2,286046997.2,N
1621529315.0,286046997.2,N
1621529315.9,286046997.2,N
1621529335.8,286046995.4,N
1621529355.6,286046997.6,N
1621529375.4,286046995.4,N
1621529395.3,286046995.4,N
1621529415.1,286046994.9,N
1621529435.8,286046995.1,N
1621529455.7,286046996.0,N
1621529475.5,286046993.3,Y
1621529495.4,286046996.6,P
1621529515.2,286046996.6,P
1621529535.0,286046999.6,N
1621529535.9,286046999.6,N
1621529555